Helicity
61 82 69 31 30 32 74 105 103 87 87 81 65 44 31 23 24 21 15 11 18 14 14 12 6 4 6 6 -0 -6 -7 -8 -9 -12 -11 -11 1 37 49 40 10 7 25
97 73 52 39 40 53 69 94 104 91 87 87 69 45 34 25 23 20 19 17 16 12 13 7 5 4 4 2 -2 -8 -13 -13 -6 1 -5 -2 18 21 18 57 28 6 -0
87 63 46 32 42 54 80 88 91 87 78 80 67 48 36 30 21 24 26 24 22 18 17 15 14 5 -1 -6 -5 -7 -9 -10 -5 13 3 17 5 6 2 1 5 15 6
74 54 44 28 36 45 74 92 81 79 73 66 57 57 41 27 24 27 31 34 33 32 28 20 13 9 1 -6 -4 -3 -9 -9 -3 -4 51 15 -4 -10 -9 -5 -0 15 11
49 46 43 38 34 48 66 90 79 60 66 62 58 50 37 31 25 24 23 29 34 37 35 27 14 3 -4 -5 -4 -5 -7 11 33 54 16 16 17 13 11 14 20 17 7
50 30 61 38 31 40 72 82 77 58 45 51 47 38 22 20 28 27 21 28 30 31 34 32 27 10 -0 -0 1 -0 3 -0 -4 18 25 16 33 37 22 -10 26 23 22
61 39 46 36 33 30 61 78 75 58 43 36 31 25 14 10 13 23 29 31 26 21 20 26 21 12 5 1 1 7 16 35 75 31 16 27 35 29 21 15 18 15 19
61 59 44 20 30 29 39 56 61 61 37 29 21 9 7 3 6 10 16 22 27 23 23 25 18 10 4 -1 -5 8 31 49 71 20 25 41 60 39 28 24 20 15 12
42 48 59 28 13 12 20 38 52 41 40 24 15 2 -11 -4 4 2 -1 5 12 19 24 20 9 -0 -5 -5 -5 4 28 41 71 23 21 45 51 46 47 40 26 17 13
55 46 54 50 27 13 5 2 34 40 28 23 15 2 -6 -15 -6 3 2 -2 -1 5 13 15 8 7 -2 -12 -10 10 35 56 79 37 8 67 48 45 43 43 43 43 33
57 58 48 53 50 27 17 4 -9 7 21 14 7 -5 2 -1 1 -0 11 22 2 7 14 6 -0 -8 -5 -7 -11 13 40 43 -4 -4 38 99 79 61 54 51 50 45 44
94 85 58 55 51 44 21 24 14 3 -2 7 14 15 5 7 2 2 -1 -2 -3 -11 -6 -0 -0 -10 -7 5 4 -2 -4 -15 -17 -21 41 64 86 67 52 49 45 41 43
97 86 71 57 49 44 31 38 19 10 4 -2 14 17 6 4 2 -7 -5 -18 -11 -4 -4 -6 -14 -17 -2 -1 -7 -7 -2 -17 -10 4 71 85 89 82 60 52 50 46 44
116 102 75 58 53 33 18 39 46 39 29 22 15 19 1 -4 17 12 2 8 9 18 8 13 -5 -8 -11 -10 -31 -15 -9 -17 -16 -15 68 66 82 91 73 68 60 55 55
91 117 89 67 51 33 8 29 24 35 42 36 37 31 14 13 17 22 15 30 32 28 32 19 12 24 11 -1 -3 -4 -3 6 3 14 31 83 76 90 75 63 59 54 54
81 98 94 76 62 40 18 36 21 24 45 25 37 48 46 23 32 27 26 31 33 30 42 29 38 29 33 32 28 24 17 14 23 26 27 98 104 111 109 93 90 90 76
69 79 93 63 88 48 36 32 29 21 6 26 29 57 85 48 51 38 30 26 23 40 42 46 46 50 55 61 57 67 54 52 50 49 52 49 116 106 122 121 102 110 106
54 78 83 53 84 61 57 42 40 27 26 20 14 50 79 57 47 83 44 53 33 33 58 49 64 64 70 62 82 74 68 68 70 75 70 77 77 119 126 129 133 116 113
74 80 101 80 80 91 57 44 41 43 48 20 26 29 89 75 48 82 38 57 67 44 57 81 76 85 80 79 76 81 74 67 85 75 82 94 87 97 131 158 144 149 138
79 104 98 99 88 106 61 59 45 34 45 31 37 46 78 110 83 82 55 48 92 45 55 69 77 94 83 77 61 58 103 101 87 101 121 141 124 124 150 114 184 161 147
53 96 117 144 144 138 112 131 116 124 110 88 59 72 95 132 110 103 104 103 129 118 103 115 125 105 122 107 66 87 81 124 118 127 164 170 124 155 155 169 191 148 184
93 109 124 140 185 187 193 167 141 122 113 111 119 95 124 146 161 151 152 152 187 186 150 154 193 185 150 165 179 115 134 97 108 115 114 116 133 166 167 180 150 156 208
97 124 113 143 210 199 186 197 186 140 112 104 120 147 169 198 209 194 169 171 198 221 218 231 230 242 235 200 205 229 219 184 102 129 191 117 74 104 119 110 146 204 231
118 126 113 122 164 205 213 227 237 310 275 232 245 243 213 208 203 203 201 183 171 228 233 259 242 262 248 259 268 260 206 163 250 206 250 214 149 106 119 99 167 219 270
95 115 135 143 142 193 237 238 288 283 233 202 186 167 173 223 206 201 214 198 198 195 237 254 276 259 277 243 250 319 275 202 139 176 209 274 319 246 209 215 214 228 254
61 90 162 157 169 168 236 318 281 284 205 199 220 205 224 220 224 197 188 208 196 209 226 265 255 292 295 279 234 228 265 348 276 203 184 192 192 255 233 238 230 211 272
Wind_Speed
51 54 53 53 53 56 57 59 59 59 61 60 60 60 60 61 62 62 62 60 59 60 61 62 61 61 59 57 56 58 59 59 57 55 56 54 35 9 32 50 65 40 20
53 55 54 53 53 55 56 58 60 58 59 60 60 59 60 61 62 63 63 63 63 63 62 63 63 62 62 63 62 61 59 61 61 61 60 17 24 24 15 7 8 45 3
54 56 55 54 53 54 56 57 58 59 57 59 60 59 59 61 62 63 63 62 63 63 64 63 61 61 61 62 62 62 62 62 63 65 66 61 47 35 3 16 28 58 48
54 56 55 54 53 54 55 56 58 58 58 58 59 59 59 60 61 61 61 61 62 62 62 61 60 60 60 60 60 60 60 60 58 55 50 55 33 32 28 30 34 46 44
55 56 54 55 53 54 54 55 56 56 58 58 58 57 58 59 59 59 59 60 61 61 60 60 60 59 58 57 56 56 56 52 49 44 36 51 51 49 49 46 45 44 42
54 55 54 55 54 53 54 54 55 54 56 57 57 56 57 57 58 58 59 59 59 59 59 58 58 57 56 54 53 52 51 47 41 42 33 44 36 41 42 30 32 33 33
54 53 56 54 55 53 52 52 52 53 54 55 55 56 56 56 56 57 58 57 57 57 56 56 55 54 52 51 49 48 45 39 34 33 36 33 33 36 34 30 30 30 32
54 51 56 55 54 54 51 50 50 52 52 52 53 53 55 55 54 55 54 54 53 54 52 52 51 51 49 47 47 45 41 38 35 37 38 36 36 36 35 33 31 30 30
49 49 52 54 54 52 52 49 49 49 50 51 50 49 50 53 54 52 52 51 49 49 49 49 48 47 46 45 44 42 38 35 32 34 36 35 36 35 33 31 30 28 28
45 46 48 50 52 53 51 51 48 48 46 48 48 47 46 48 51 52 51 50 48 47 46 45 44 43 42 42 42 40 38 36 33 32 33 32 32 31 29 28 27 27 24
44 44 46 46 48 50 51 49 50 46 47 46 46 46 44 45 46 45 49 45 49 47 44 42 40 39 39 38 36 38 38 34 27 29 24 27 26 26 27 26 25 25 25
43 45 46 47 46 46 47 49 48 48 47 48 47 44 46 46 43 43 39 39 41 43 41 40 37 35 36 34 30 29 30 17 23 24 25 23 22 21 21 21 21 20 20
40 43 45 46 45 45 44 43 49 45 46 47 47 44 48 41 37 40 33 35 37 36 36 34 30 31 31 34 22 19 19 19 18 17 20 18 16 14 14 15 15 15 14
37 39 43 45 44 45 43 41 44 45 45 43 45 45 46 43 34 34 34 30 32 29 34 28 27 27 25 20 16 13 11 13 13 13 18 15 12 8 7 8 9 9 9
33 36 40 41 42 43 45 40 42 42 42 41 41 42 44 42 36 32 32 24 26 26 26 25 24 18 18 14 8 7 4 6 8 17 26 15 13 6 2 4 6 8 8
29 33 36 39 38 40 44 38 39 38 36 41 39 39 44 39 34 35 33 27 25 24 20 21 17 15 11 8 5 2 3 5 9 11 14 15 12 9 6 6 8 10 14
25 30 33 35 34 36 39 39 39 37 39 39 39 35 35 42 34 34 33 31 30 24 20 15 11 9 7 6 7 8 9 11 14 17 21 24 20 15 13 14 16 19 21
21 25 28 29 32 33 32 35 35 36 37 37 39 32 35 39 39 31 34 30 30 26 21 19 15 14 11 10 10 12 14 16 18 19 21 26 30 30 21 19 23 27 31
25 22 25 25 28 31 29 27 31 32 33 37 35 39 36 41 45 39 40 36 31 31 28 21 20 17 14 13 13 12 12 14 17 19 22 28 32 37 42 29 26 28 34
26 24 24 22 23 24 22 23 23 26 28 30 35 36 38 38 44 45 42 42 36 38 35 33 31 24 24 21 18 18 14 14 15 18 22 29 30 32 35 41 38 39 38
32 29 28 26 24 23 25 24 24 26 24 25 30 33 34 33 37 42 40 33 32 33 32 28 25 27 22 18 22 20 22 16 19 21 28 27 28 29 30 32 36 36 37
39 36 32 30 28 29 27 26 25 25 25 25 24 25 31 31 31 35 38 34 32 28 29 27 23 17 17 16 14 14 18 18 21 23 22 23 25 27 26 24 28 33 37
45 43 39 35 33 33 32 31 31 30 29 27 28 29 31 34 34 34 35 34 30 29 26 26 24 24 18 15 17 15 18 20 20 16 15 17 19 19 21 20 18 18 23
53 51 46 43 41 39 38 40 39 39 39 37 35 34 32 35 36 36 35 35 34 29 29 25 24 24 22 21 18 21 25 25 30 28 23 18 17 18 18 18 21 23 24
57 59 59 61 61 50 46 44 45 45 42 42 42 38 36 35 37 38 38 38 37 34 31 30 25 27 25 26 25 23 21 23 24 30 33 31 28 26 23 24 25 26 31
78 71 61 62 62 61 55 52 51 49 47 45 43 40 40 39 38 39 39 39 39 37 35 31 31 28 29 28 28 28 27 26 27 28 31 31 34 32 27 29 30 29 28
Wind_Direction
106 109 106 110 108 109 110 113 115 116 122 123 119 118 117 113 110 106 104 100 94 93 95 96 95 90 84 77 75 78 77 75 73 70 70 68 50 137 152 136 110 142 152
105 112 110 108 109 110 112 115 118 115 120 122 123 122 122 120 119 117 113 111 110 109 104 103 101 96 95 93 89 85 83 87 86 85 80 66 157 157 158 65 149 143 91
107 113 115 112 109 114 115 115 118 119 117 122 126 125 128 124 125 123 120 116 116 118 114 107 99 98 98 99 96 96 99 101 107 112 109 110 142 156 165 32 154 101 65
110 115 117 116 112 112 115 116 118 119 121 122 127 127 129 131 131 127 124 120 119 117 115 108 105 102 101 102 104 106 110 114 119 128 135 122 145 169 174 151 45 70 61
115 119 118 120 115 114 114 115 117 119 124 124 128 129 132 133 134 134 128 125 120 116 115 114 111 110 106 104 106 112 121 128 131 142 58 100 102 101 103 87 82 88 91
117 123 120 122 121 117 117 116 118 119 123 126 129 131 132 133 135 136 132 127 126 122 117 113 112 113 114 110 110 119 135 144 154 87 49 92 60 82 90 47 46 50 44
121 119 127 125 126 124 120 119 119 121 123 125 128 132 135 136 135 134 134 128 126 127 122 118 114 115 113 114 118 131 148 166 178 51 67 54 54 77 66 42 38 39 44
126 121 130 132 130 131 127 124 122 124 126 127 126 130 137 144 136 135 134 128 126 127 122 119 117 122 121 114 125 140 159 167 168 72 80 72 77 80 73 62 49 41 38
125 124 129 136 137 135 136 130 128 127 129 131 127 126 130 142 146 139 138 132 125 123 122 122 119 125 123 115 121 138 169 181 188 68 93 71 81 84 82 69 59 47 43
125 127 131 134 138 142 142 141 135 135 132 133 132 128 125 134 145 147 145 142 135 131 125 125 125 124 121 122 128 148 169 178 182 73 121 61 74 80 80 78 67 65 43
133 133 137 136 138 141 146 145 145 141 140 138 136 136 130 136 139 137 151 135 145 138 132 129 127 126 128 126 124 160 184 158 107 124 68 69 72 79 89 93 90 89 92
139 141 143 143 141 140 143 145 148 150 150 152 150 143 147 147 141 142 134 133 139 142 140 138 135 131 139 134 119 123 141 93 85 71 29 65 74 84 89 92 90 88 92
140 142 147 148 146 145 144 140 151 149 152 156 157 150 159 146 138 146 129 137 142 143 145 143 139 144 146 162 115 93 110 31 101 86 34 51 67 84 82 80 76 75 72
142 145 149 150 150 152 148 144 149 151 154 154 159 159 161 159 145 145 146 140 146 142 154 147 149 153 153 148 130 30 54 42 58 48 18 29 40 78 79 66 60 57 57
145 146 151 152 154 155 159 151 154 154 155 156 156 159 164 163 157 153 156 144 149 150 156 157 160 153 160 158 143 137 86 41 17 356 345 10 13 20 32 2 2 2 357
149 150 151 155 155 158 163 157 158 157 153 161 160 162 168 165 161 163 164 161 161 163 161 167 166 168 169 172 187 229 306 328 337 336 340 343 344 338 290 279 300 315 324
159 154 155 156 157 161 165 165 163 163 167 166 168 164 166 174 167 167 169 169 170 167 171 175 189 202 226 244 259 291 282 294 305 313 318 320 324 317 301 280 287 299 305
174 167 162 162 163 166 167 169 169 170 170 172 175 169 173 177 178 172 176 175 176 176 174 181 186 196 214 231 277 285 283 292 296 298 301 307 311 313 301 292 287 291 298
196 188 177 176 174 173 175 176 177 176 178 180 178 181 178 182 186 182 185 182 179 183 185 185 191 200 209 218 231 252 267 279 294 294 294 301 302 304 308 300 286 287 290
214 209 198 192 191 189 187 188 190 189 189 188 188 188 186 186 189 190 190 191 185 190 191 192 195 196 204 210 218 225 246 264 275 281 293 302 300 300 301 303 304 299 295
237 221 210 212 209 207 204 203 207 207 209 206 199 198 195 194 193 195 196 195 194 196 197 197 199 204 207 213 217 232 232 256 258 280 301 297 293 298 299 301 304 304 306
240 241 232 225 222 218 224 224 233 232 224 229 230 219 208 208 207 203 203 204 204 207 206 207 208 218 225 226 241 256 264 263 255 250 263 275 281 292 293 290 296 303 309
245 247 242 236 235 231 232 246 255 256 250 235 234 244 230 223 222 216 215 215 216 217 221 219 220 222 245 254 240 264 316 299 311 308 266 283 282 277 279 274 274 288 304
256 256 255 249 244 242 240 250 242 247 243 240 241 250 250 238 235 231 231 228 227 231 230 237 234 237 248 257 273 258 256 297 320 313 322 307 303 291 282 279 298 300 305
256 259 260 261 263 253 246 243 251 245 245 258 259 255 248 252 240 242 240 237 235 236 241 241 248 242 253 260 267 288 278 287 282 289 295 308 317 310 302 300 303 304 306
264 264 260 259 259 261 253 244 245 247 241 252 254 255 258 255 253 245 243 243 242 244 244 248 249 256 255 265 269 275 277 290 297 299 297 298 299 312 306 306 304 302 303